Time,TemperatureF,DewpointF,PressureIn,WindDirection,WindDirectionDegrees,WindSpeedMPH,WindSpeedGustMPH,Humidity,HourlyPrecipIn,Conditions,Clouds,dailyrainin,SoftwareType,DateUTC
2013-01-12 00:03:00,34.5,34.0,29.96,ENE,68,6.0,8.0,98,0.00,,,0.00,meteohub,2013-01-12 00:03:00,
2013-01-12 00:08:00,34.3,33.8,29.96,ENE,68,4.0,8.0,98,0.00,,,0.00,meteohub,2013-01-12 00:08:00,
2013-01-12 00:13:00,34.3,33.8,29.96,East,90,6.0,8.0,98,0.00,,,0.00,meteohub,2013-01-12 00:13:00,
2013-01-12 00:18:00,34.2,33.6,29.96,East,90,6.0,7.0,98,0.00,,,0.00,meteohub,2013-01-12 00:18:00,
2013-01-12 00:23:00,34.2,33.6,29.96,ENE,68,6.0,8.0,98,0.00,,,0.00,meteohub,2013-01-12 00:23:00,
2013-01-12 00:28:00,34.2,33.6,29.96,NE,45,5.0,8.0,98,0.00,,,0.00,meteohub,2013-01-12 00:28:00,
2013-01-12 00:33:00,34.2,33.6,29.93,East,90,6.0,8.0,98,0.00,,,0.00,meteohub,2013-01-12 00:33:00,
2013-01-12 00:38:00,34.2,33.6,29.93,East,90,4.0,6.0,98,0.00,,,0.00,meteohub,2013-01-12 00:38:00,
2013-01-12 00:43:00,34.3,33.8,29.93,ENE,68,3.0,6.0,98,0.00,,,0.00,meteohub,2013-01-12 00:43:00,
2013-01-12 00:48:00,34.3,33.8,29.93,ENE,68,3.0,6.0,98,0.00,,,0.00,meteohub,2013-01-12 00:48:00,
2013-01-12 00:54:00,34.3,33.8,29.93,East,90,6.0,6.0,98,0.00,,,0.00,meteohub,2013-01-12 00:54:00,
2013-01-12 00:59:00,34.3,33.8,29.93,East,90,4.0,6.0,98,0.00,,,0.00,meteohub,2013-01-12 00:59:00,
2013-01-12 01:04:00,34.3,33.8,29.93,East,90,5.0,6.0,98,0.00,,,0.00,meteohub,2013-01-12 01:04:00,
2013-01-12 01:09:00,34.3,33.8,29.93,East,90,4.0,6.0,98,0.00,,,0.00,meteohub,2013-01-12 01:09:00,
2013-01-12 01:14:00,34.3,33.8,29.93,East,90,4.0,6.0,98,0.00,,,0.00,meteohub,2013-01-12 01:14:00,
2013-01-12 01:19:00,34.3,33.8,29.93,East,90,4.0,6.0,98,0.00,,,0.00,meteohub,2013-01-12 01:19:00,
2013-01-12 01:24:00,34.3,33.8,29.93,East,90,5.0,6.0,98,0.00,,,0.00,meteohub,2013-01-12 01:24:00,
2013-01-12 01:30:00,34.3,33.8,29.93,ENE,68,4.0,6.0,98,0.00,,,0.00,meteohub,2013-01-12 01:30:00,
2013-01-12 01:35:00,34.3,33.8,29.93,East,90,6.0,6.0,98,0.00,,,0.00,meteohub,2013-01-12 01:35:00,
2013-01-12 01:40:00,34.5,34.0,29.93,ENE,68,6.0,7.0,98,0.00,,,0.00,meteohub,2013-01-12 01:40:00,
2013-01-12 01:45:00,34.5,34.0,29.93,East,90,6.0,9.0,98,0.00,,,0.00,meteohub,2013-01-12 01:45:00,
2013-01-12 01:50:00,34.5,34.0,29.93,ENE,68,3.0,9.0,98,0.00,,,0.00,meteohub,2013-01-12 01:50:00,
2013-01-12 01:55:00,34.5,34.0,29.93,East,90,4.0,8.0,98,0.00,,,0.00,meteohub,2013-01-12 01:55:00,
2013-01-12 02:00:00,34.3,33.8,29.93,ENE,68,3.0,5.0,98,0.00,,,0.00,meteohub,2013-01-12 02:00:00,
2013-01-12 02:05:00,34.2,33.6,29.93,NE,45,3.0,4.0,98,0.00,,,0.00,meteohub,2013-01-12 02:05:00,
2013-01-12 02:10:00,34.0,33.4,29.93,NE,45,4.0,4.0,98,0.00,,,0.00,meteohub,2013-01-12 02:10:00,
2013-01-12 02:15:00,33.8,33.3,29.93,NNE,22,6.0,6.0,98,0.00,,,0.00,meteohub,2013-01-12 02:15:00,
2013-01-12 02:20:00,33.8,33.3,29.93,NE,45,6.0,7.0,98,0.00,,,0.00,meteohub,2013-01-12 02:20:00,
2013-01-12 02:25:00,33.8,33.3,29.93,NE,45,6.0,8.0,98,0.00,,,0.00,meteohub,2013-01-12 02:25:00,
2013-01-12 02:30:00,33.8,33.3,29.93,NE,45,6.0,8.0,98,0.00,,,0.00,meteohub,2013-01-12 02:30:00,
2013-01-12 02:35:00,33.8,33.3,29.93,NE,45,6.0,8.0,98,0.00,,,0.00,meteohub,2013-01-12 02:35:00,
2013-01-12 02:40:00,33.8,33.3,29.93,NE,45,6.0,8.0,98,0.00,,,0.00,meteohub,2013-01-12 02:40:00,
2013-01-12 02:45:00,33.8,33.3,29.93,NE,45,7.0,8.0,98,0.00,,,0.00,meteohub,2013-01-12 02:45:00,
2013-01-12 02:51:00,33.6,33.1,29.93,NE,45,6.0,8.0,98,0.00,,,0.00,meteohub,2013-01-12 02:51:00,
2013-01-12 02:56:00,33.6,33.1,29.93,NE,45,5.0,8.0,98,0.00,,,0.00,meteohub,2013-01-12 02:56:00,
2013-01-12 03:01:00,33.6,33.1,29.93,NE,45,6.0,8.0,98,0.00,,,0.00,meteohub,2013-01-12 03:01:00,
2013-01-12 03:06:00,33.6,33.1,29.93,NE,45,5.0,7.0,98,0.00,,,0.00,meteohub,2013-01-12 03:06:00,
2013-01-12 03:11:00,33.6,33.1,29.93,NE,45,5.0,7.0,98,0.00,,,0.00,meteohub,2013-01-12 03:11:00,
2013-01-12 03:16:00,33.6,33.1,29.93,NNE,22,5.0,6.0,98,0.00,,,0.00,meteohub,2013-01-12 03:16:00,
2013-01-12 03:21:00,33.4,32.9,29.93,NNE,22,4.0,6.0,98,0.00,,,0.00,meteohub,2013-01-12 03:21:00,
2013-01-12 03:26:00,33.4,32.9,29.93,NNE,22,4.0,6.0,98,0.00,,,0.00,meteohub,2013-01-12 03:26:00,
2013-01-12 03:31:00,33.3,32.7,29.93,NNE,22,5.0,7.0,98,0.00,,,0.00,meteohub,2013-01-12 03:31:00,
2013-01-12 03:36:00,33.3,32.7,29.93,NE,45,5.0,7.0,98,0.00,,,0.00,meteohub,2013-01-12 03:36:00,
2013-01-12 03:41:00,33.3,32.7,29.93,NE,45,5.0,7.0,98,0.00,,,0.00,meteohub,2013-01-12 03:41:00,
2013-01-12 03:46:00,33.3,32.7,29.93,NE,45,4.0,6.0,98,0.00,,,0.00,meteohub,2013-01-12 03:46:00,
2013-01-12 03:51:00,33.3,32.7,29.93,NNE,22,4.0,6.0,98,0.00,,,0.00,meteohub,2013-01-12 03:51:00,
2013-01-12 03:57:00,33.1,32.5,29.93,NNE,22,6.0,6.0,98,0.00,,,0.00,meteohub,2013-01-12 03:57:00,
2013-01-12 04:02:00,33.3,32.7,29.93,NE,45,6.0,6.0,98,0.00,,,0.00,meteohub,2013-01-12 04:02:00,
2013-01-12 04:07:00,33.1,32.5,29.93,NNE,22,6.0,7.0,98,0.00,,,0.00,meteohub,2013-01-12 04:07:00,
2013-01-12 04:12:00,33.1,32.5,29.93,NNE,22,5.0,7.0,98,0.00,,,0.00,meteohub,2013-01-12 04:12:00,
2013-01-12 04:17:00,33.1,32.5,29.93,NNE,22,6.0,7.0,98,0.01,,,0.01,meteohub,2013-01-12 04:17:00,
2013-01-12 04:22:00,33.3,32.7,29.93,NNE,22,6.0,9.0,98,0.01,,,0.01,meteohub,2013-01-12 04:22:00,
2013-01-12 04:27:00,33.3,32.7,29.93,NE,45,6.0,9.0,98,0.01,,,0.01,meteohub,2013-01-12 04:27:00,
2013-01-12 04:32:00,33.4,32.9,29.93,NNE,22,6.0,9.0,98,0.01,,,0.01,meteohub,2013-01-12 04:32:00,
2013-01-12 04:37:00,33.6,33.1,29.93,NNE,22,9.0,9.0,98,0.01,,,0.01,meteohub,2013-01-12 04:37:00,
2013-01-12 04:42:00,33.8,33.3,29.93,NNE,22,8.0,10.0,98,0.01,,,0.01,meteohub,2013-01-12 04:42:00,
2013-01-12 04:47:00,34.0,33.4,29.93,NNE,22,6.0,10.0,98,0.01,,,0.01,meteohub,2013-01-12 04:47:00,
2013-01-12 04:52:00,34.2,33.6,29.93,NNE,22,8.0,10.0,98,0.01,,,0.01,meteohub,2013-01-12 04:52:00,
2013-01-12 04:57:00,34.2,33.6,29.93,NNE,22,8.0,9.0,98,0.01,,,0.01,meteohub,2013-01-12 04:57:00,
2013-01-12 05:01:00,34.2,33.6,29.93,NNE,22,9.0,10.0,98,0.01,,,0.01,meteohub,2013-01-12 05:01:00,
2013-01-12 05:03:00,34.3,33.8,29.93,NNE,22,8.0,10.0,98,0.01,,,0.01,meteohub,2013-01-12 05:03:00,
2013-01-12 05:04:00,34.3,33.8,29.93,NNE,22,6.0,10.0,98,0.01,,,0.01,meteohub,2013-01-12 05:04:00,
2013-01-12 05:06:00,34.3,33.8,29.93,NNE,22,8.0,10.0,98,0.01,,,0.01,meteohub,2013-01-12 05:06:00,
2013-01-12 05:11:00,34.3,33.8,29.93,NE,45,6.0,10.0,98,0.01,,,0.01,meteohub,2013-01-12 05:11:00,
2013-01-12 05:16:00,34.3,33.8,29.93,NE,45,8.0,9.0,98,0.00,,,0.01,meteohub,2013-01-12 05:16:00,
2013-01-12 05:21:00,34.3,33.8,29.93,NNE,22,7.0,9.0,98,0.00,,,0.01,meteohub,2013-01-12 05:21:00,
2013-01-12 05:26:00,34.3,33.8,29.93,NNE,22,8.0,9.0,98,0.00,,,0.01,meteohub,2013-01-12 05:26:00,
2013-01-12 05:31:00,34.3,33.8,29.93,NE,45,7.0,9.0,98,0.00,,,0.01,meteohub,2013-01-12 05:31:00,
2013-01-12 05:36:00,34.2,33.6,29.93,NNE,22,6.0,9.0,98,0.00,,,0.01,meteohub,2013-01-12 05:36:00,
2013-01-12 05:41:00,34.2,33.6,29.93,NE,45,6.0,8.0,98,0.00,,,0.01,meteohub,2013-01-12 05:41:00,
2013-01-12 05:46:00,34.0,33.4,29.93,NNE,22,4.0,8.0,98,0.00,,,0.01,meteohub,2013-01-12 05:46:00,
2013-01-12 05:51:00,33.8,33.3,29.93,NE,45,5.0,8.0,98,0.00,,,0.01,meteohub,2013-01-12 05:51:00,
2013-01-12 05:56:00,33.8,33.3,29.93,NE,45,5.0,6.0,98,0.00,,,0.01,meteohub,2013-01-12 05:56:00,
2013-01-12 06:01:00,33.8,33.3,29.93,NE,45,4.0,6.0,98,0.00,,,0.01,meteohub,2013-01-12 06:01:00,
2013-01-12 06:06:00,33.8,33.3,29.93,NE,45,4.0,6.0,98,0.00,,,0.01,meteohub,2013-01-12 06:06:00,
2013-01-12 06:12:00,33.8,33.3,29.93,NE,45,4.0,6.0,98,0.00,,,0.01,meteohub,2013-01-12 06:12:00,
2013-01-12 06:17:00,33.8,33.3,29.93,NE,45,6.0,6.0,98,0.00,,,0.01,meteohub,2013-01-12 06:17:00,
2013-01-12 06:22:00,33.8,33.3,29.93,NE,45,2.0,6.0,98,0.00,,,0.01,meteohub,2013-01-12 06:22:00,
2013-01-12 06:27:00,33.8,33.3,29.93,NE,45,4.0,6.0,98,0.00,,,0.01,meteohub,2013-01-12 06:27:00,
2013-01-12 06:32:00,34.0,33.4,29.93,NNE,22,4.0,6.0,98,0.00,,,0.01,meteohub,2013-01-12 06:32:00,
2013-01-12 06:37:00,33.8,33.3,29.93,NNE,22,5.0,5.0,98,0.00,,,0.01,meteohub,2013-01-12 06:37:00,
2013-01-12 06:42:00,34.0,33.4,29.93,NNE,22,4.0,6.0,98,0.00,,,0.01,meteohub,2013-01-12 06:42:00,
2013-01-12 06:47:00,34.0,33.4,29.93,NE,45,4.0,6.0,98,0.00,,,0.01,meteohub,2013-01-12 06:47:00,
2013-01-12 06:52:00,34.0,33.4,29.93,East,90,5.0,6.0,98,0.00,,,0.01,meteohub,2013-01-12 06:52:00,
2013-01-12 06:57:00,34.3,33.8,29.93,East,90,6.0,8.0,98,0.00,,,0.01,meteohub,2013-01-12 06:57:00,
2013-01-12 07:02:00,34.5,34.0,29.93,ENE,68,4.0,8.0,98,0.00,,,0.01,meteohub,2013-01-12 07:02:00,
2013-01-12 07:07:00,34.5,34.0,29.93,ENE,68,7.0,8.0,98,0.00,,,0.01,meteohub,2013-01-12 07:07:00,
2013-01-12 07:12:00,34.9,34.3,29.93,East,90,6.0,7.0,98,0.00,,,0.01,meteohub,2013-01-12 07:12:00,
2013-01-12 07:17:00,35.1,34.5,29.96,ENE,68,4.0,10.0,98,0.00,,,0.01,meteohub,2013-01-12 07:17:00,
2013-01-12 07:22:00,35.1,34.5,29.96,NE,45,4.0,10.0,98,0.00,,,0.01,meteohub,2013-01-12 07:22:00,
2013-01-12 07:28:00,35.1,34.5,29.96,NE,45,4.0,10.0,98,0.00,,,0.01,meteohub,2013-01-12 07:28:00,
2013-01-12 07:33:00,35.2,34.7,29.93,East,90,5.0,6.0,98,0.00,,,0.01,meteohub,2013-01-12 07:33:00,
2013-01-12 07:38:00,35.4,34.9,29.93,East,90,4.0,8.0,98,0.00,,,0.01,meteohub,2013-01-12 07:38:00,
2013-01-12 07:43:00,35.4,34.9,29.93,ENE,68,4.0,8.0,98,0.00,,,0.01,meteohub,2013-01-12 07:43:00,
2013-01-12 07:48:00,35.4,34.9,29.96,East,90,6.0,8.0,98,0.00,,,0.01,meteohub,2013-01-12 07:48:00,
2013-01-12 07:53:00,35.4,34.9,29.96,East,90,6.0,8.0,98,0.00,,,0.01,meteohub,2013-01-12 07:53:00,
2013-01-12 07:58:00,35.6,35.1,29.96,East,90,6.0,9.0,98,0.00,,,0.01,meteohub,2013-01-12 07:58:00,
2013-01-12 08:03:00,35.6,35.1,29.96,East,90,6.0,9.0,98,0.00,,,0.01,meteohub,2013-01-12 08:03:00,
2013-01-12 08:08:00,35.6,35.1,29.96,ESE,112,8.0,11.0,98,0.00,,,0.01,meteohub,2013-01-12 08:08:00,
2013-01-12 08:13:00,35.8,35.2,29.96,East,90,7.0,11.0,98,0.00,,,0.01,meteohub,2013-01-12 08:13:00,
2013-01-12 08:18:00,35.8,35.2,29.96,ENE,68,6.0,11.0,98,0.00,,,0.01,meteohub,2013-01-12 08:18:00,
2013-01-12 08:23:00,36.0,35.4,29.96,East,90,7.0,11.0,98,0.00,,,0.01,meteohub,2013-01-12 08:23:00,
2013-01-12 08:28:00,36.1,35.6,29.96,East,90,5.0,10.0,98,0.00,,,0.01,meteohub,2013-01-12 08:28:00,
2013-01-12 08:33:00,36.1,35.6,29.96,East,90,4.0,9.0,98,0.00,,,0.01,meteohub,2013-01-12 08:33:00,
2013-01-12 08:38:00,36.3,35.8,29.96,East,90,6.0,8.0,98,0.00,,,0.01,meteohub,2013-01-12 08:38:00,
2013-01-12 08:43:00,36.3,35.8,29.96,East,90,9.0,9.0,98,0.00,,,0.01,meteohub,2013-01-12 08:43:00,
2013-01-12 08:48:00,36.5,36.0,29.96,East,90,8.0,9.0,98,0.00,,,0.01,meteohub,2013-01-12 08:48:00,
2013-01-12 08:53:00,36.7,36.1,29.96,East,90,6.0,9.0,98,0.00,,,0.01,meteohub,2013-01-12 08:53:00,
2013-01-12 08:59:00,36.7,36.1,29.96,East,90,6.0,9.0,98,0.00,,,0.01,meteohub,2013-01-12 08:59:00,
2013-01-12 09:04:00,36.7,36.1,29.99,East,90,5.0,8.0,98,0.00,,,0.01,meteohub,2013-01-12 09:04:00,
2013-01-12 09:09:00,36.7,36.1,29.99,SE,135,4.0,8.0,98,0.00,,,0.01,meteohub,2013-01-12 09:09:00,
2013-01-12 09:14:00,36.9,36.3,29.99,East,90,4.0,7.0,98,0.00,,,0.01,meteohub,2013-01-12 09:14:00,
2013-01-12 09:19:00,36.9,36.3,29.99,East,90,5.0,7.0,98,0.00,,,0.01,meteohub,2013-01-12 09:19:00,
2013-01-12 09:24:00,36.9,36.3,29.99,ENE,68,4.0,7.0,98,0.00,,,0.01,meteohub,2013-01-12 09:24:00,
2013-01-12 09:29:00,36.7,36.1,29.99,ENE,68,6.0,7.0,98,0.00,,,0.01,meteohub,2013-01-12 09:29:00,
2013-01-12 09:34:00,36.9,36.3,29.99,East,90,6.0,8.0,98,0.00,,,0.01,meteohub,2013-01-12 09:34:00,
2013-01-12 09:39:00,36.9,36.3,29.99,ENE,68,6.0,8.0,98,0.00,,,0.01,meteohub,2013-01-12 09:39:00,
2013-01-12 09:44:00,36.9,36.3,29.99,East,90,6.0,8.0,98,0.00,,,0.01,meteohub,2013-01-12 09:44:00,
2013-01-12 09:49:00,36.9,36.3,29.99,East,90,5.0,7.0,98,0.00,,,0.01,meteohub,2013-01-12 09:49:00,
2013-01-12 09:54:00,36.9,36.3,29.99,East,90,4.0,6.0,98,0.00,,,0.01,meteohub,2013-01-12 09:54:00,
2013-01-12 09:59:00,37.0,36.5,29.99,SE,135,4.0,6.0,98,0.00,,,0.01,meteohub,2013-01-12 09:59:00,
2013-01-12 10:04:00,37.0,36.5,30.01,East,90,4.0,6.0,98,0.00,,,0.01,meteohub,2013-01-12 10:04:00,
2013-01-12 10:09:00,37.2,36.7,30.01,East,90,6.0,9.0,98,0.00,,,0.01,meteohub,2013-01-12 10:09:00,
2013-01-12 10:15:00,37.2,36.7,30.01,East,90,6.0,10.0,98,0.00,,,0.01,meteohub,2013-01-12 10:15:00,
2013-01-12 10:20:00,37.2,36.7,30.01,East,90,4.0,10.0,98,0.00,,,0.01,meteohub,2013-01-12 10:20:00,
2013-01-12 10:25:00,37.2,36.7,30.01,East,90,9.0,10.0,98,0.00,,,0.01,meteohub,2013-01-12 10:25:00,
2013-01-12 10:30:00,37.4,36.9,30.01,ESE,112,6.0,10.0,98,0.00,,,0.01,meteohub,2013-01-12 10:30:00,
2013-01-12 10:35:00,37.4,36.9,30.01,East,90,8.0,10.0,98,0.00,,,0.01,meteohub,2013-01-12 10:35:00,
2013-01-12 10:40:00,37.4,36.9,30.01,East,90,6.0,10.0,98,0.00,,,0.01,meteohub,2013-01-12 10:40:00,
2013-01-12 10:45:00,37.4,36.9,30.01,East,90,6.0,10.0,98,0.00,,,0.01,meteohub,2013-01-12 10:45:00,
2013-01-12 10:50:00,37.4,36.9,30.01,East,90,7.0,10.0,98,0.00,,,0.01,meteohub,2013-01-12 10:50:00,
2013-01-12 10:55:00,37.6,37.0,30.01,East,90,6.0,10.0,98,0.00,,,0.01,meteohub,2013-01-12 10:55:00,
2013-01-12 11:00:00,37.6,37.0,30.01,East,90,8.0,10.0,98,0.00,,,0.01,meteohub,2013-01-12 11:00:00,
2013-01-12 11:05:00,37.6,37.0,30.01,East,90,6.0,10.0,98,0.00,,,0.01,meteohub,2013-01-12 11:05:00,
2013-01-12 11:10:00,37.6,37.0,30.01,East,90,9.0,10.0,98,0.00,,,0.01,meteohub,2013-01-12 11:10:00,
2013-01-12 11:15:00,37.6,37.0,30.01,East,90,8.0,9.0,98,0.00,,,0.01,meteohub,2013-01-12 11:15:00,
2013-01-12 11:20:00,37.4,36.9,30.01,East,90,8.0,10.0,98,0.00,,,0.01,meteohub,2013-01-12 11:20:00,
2013-01-12 11:25:00,37.6,37.0,30.01,East,90,9.0,11.0,98,0.00,,,0.01,meteohub,2013-01-12 11:25:00,
2013-01-12 11:31:00,37.6,37.0,30.01,East,90,6.0,11.0,98,0.00,,,0.01,meteohub,2013-01-12 11:31:00,
2013-01-12 11:36:00,37.6,37.0,30.01,East,90,4.0,11.0,98,0.00,,,0.01,meteohub,2013-01-12 11:36:00,
2013-01-12 11:41:00,37.9,37.4,30.01,East,90,6.0,9.0,98,0.00,,,0.01,meteohub,2013-01-12 11:41:00,
2013-01-12 11:46:00,37.9,37.4,30.01,East,90,6.0,11.0,98,0.00,,,0.01,meteohub,2013-01-12 11:46:00,
2013-01-12 11:51:00,37.9,37.4,30.01,East,90,11.0,11.0,98,0.00,,,0.01,meteohub,2013-01-12 11:51:00,
2013-01-12 11:56:00,37.9,37.4,30.01,East,90,11.0,13.0,98,0.00,,,0.01,meteohub,2013-01-12 11:56:00,
2013-01-12 12:01:00,37.9,37.4,30.01,East,90,11.0,13.0,98,0.00,,,0.01,meteohub,2013-01-12 12:01:00,
2013-01-12 12:06:00,38.1,37.6,30.01,East,90,9.0,15.0,98,0.00,,,0.01,meteohub,2013-01-12 12:06:00,
2013-01-12 12:11:00,38.1,37.4,30.01,ESE,112,11.0,15.0,97,0.00,,,0.01,meteohub,2013-01-12 12:11:00,
2013-01-12 12:16:00,38.1,37.0,30.01,ESE,112,11.0,15.0,96,0.00,,,0.01,meteohub,2013-01-12 12:16:00,
2013-01-12 12:21:00,38.1,37.0,30.01,East,90,11.0,14.0,96,0.00,,,0.01,meteohub,2013-01-12 12:21:00,
2013-01-12 12:26:00,38.1,37.0,30.01,East,90,7.0,14.0,96,0.00,,,0.01,meteohub,2013-01-12 12:26:00,
2013-01-12 12:31:00,38.1,36.5,30.01,East,90,11.0,14.0,94,0.00,,,0.01,meteohub,2013-01-12 12:31:00,
2013-01-12 12:36:00,38.1,36.9,30.01,ESE,112,11.0,13.0,95,0.00,,,0.01,meteohub,2013-01-12 12:36:00,
2013-01-12 12:41:00,38.3,37.0,30.01,East,90,9.0,13.0,95,0.00,,,0.01,meteohub,2013-01-12 12:41:00,
2013-01-12 12:47:00,38.7,37.4,30.01,SE,135,10.0,14.0,95,0.00,,,0.01,meteohub,2013-01-12 12:47:00,
2013-01-12 12:52:00,38.8,37.6,30.01,SE,135,13.0,14.0,95,0.00,,,0.01,meteohub,2013-01-12 12:52:00,
2013-01-12 12:57:00,38.8,37.2,30.01,SE,135,11.0,14.0,94,0.00,,,0.01,meteohub,2013-01-12 12:57:00,
2013-01-12 13:02:00,38.8,37.2,30.01,East,90,11.0,14.0,94,0.00,,,0.01,meteohub,2013-01-12 13:02:00,
2013-01-12 13:07:00,39.0,36.9,30.01,SE,135,10.0,14.0,92,0.00,,,0.01,meteohub,2013-01-12 13:07:00,
2013-01-12 13:12:00,38.8,36.5,30.01,ESE,112,9.0,14.0,91,0.00,,,0.01,meteohub,2013-01-12 13:12:00,
2013-01-12 13:17:00,38.8,36.5,30.01,ESE,112,11.0,13.0,91,0.00,,,0.01,meteohub,2013-01-12 13:17:00,
2013-01-12 13:22:00,38.8,36.1,30.01,ESE,112,10.0,13.0,90,0.00,,,0.01,meteohub,2013-01-12 13:22:00,
2013-01-12 13:27:00,38.8,36.1,30.01,SE,135,11.0,13.0,90,0.00,,,0.01,meteohub,2013-01-12 13:27:00,
2013-01-12 13:32:00,38.8,36.0,30.01,East,90,10.0,13.0,89,0.00,,,0.01,meteohub,2013-01-12 13:32:00,
2013-01-12 13:37:00,38.8,35.6,30.01,East,90,8.0,11.0,88,0.00,,,0.01,meteohub,2013-01-12 13:37:00,
2013-01-12 13:42:00,38.8,35.2,30.01,East,90,11.0,13.0,87,0.00,,,0.01,meteohub,2013-01-12 13:42:00,
2013-01-12 13:47:00,38.8,35.6,30.01,East,90,9.0,13.0,88,0.00,,,0.01,meteohub,2013-01-12 13:47:00,
2013-01-12 13:52:00,38.8,35.2,30.01,East,90,9.0,13.0,87,0.00,,,0.01,meteohub,2013-01-12 13:52:00,
2013-01-12 13:58:00,38.8,35.2,30.01,ESE,112,6.0,13.0,87,0.00,,,0.01,meteohub,2013-01-12 13:58:00,
2013-01-12 14:03:00,38.8,35.6,30.04,ESE,112,10.0,13.0,88,0.00,,,0.01,meteohub,2013-01-12 14:03:00,
2013-01-12 14:08:00,38.8,35.2,30.04,East,90,8.0,13.0,87,0.00,,,0.01,meteohub,2013-01-12 14:08:00,
2013-01-12 14:13:00,38.8,35.2,30.04,ENE,68,8.0,12.0,87,0.00,,,0.01,meteohub,2013-01-12 14:13:00,
2013-01-12 14:18:00,38.8,35.2,30.04,East,90,5.0,12.0,87,0.00,,,0.01,meteohub,2013-01-12 14:18:00,
2013-01-12 14:23:00,38.8,35.2,30.04,ENE,68,6.0,10.0,87,0.00,,,0.01,meteohub,2013-01-12 14:23:00,
2013-01-12 14:28:00,38.8,35.2,30.04,East,90,3.0,9.0,87,0.00,,,0.01,meteohub,2013-01-12 14:28:00,
2013-01-12 14:33:00,38.7,35.4,30.04,East,90,7.0,9.0,88,0.00,,,0.01,meteohub,2013-01-12 14:33:00,
2013-01-12 14:38:00,38.7,35.4,30.04,East,90,6.0,9.0,88,0.00,,,0.01,meteohub,2013-01-12 14:38:00,
2013-01-12 14:43:00,38.7,35.4,30.04,ENE,68,6.0,9.0,88,0.00,,,0.01,meteohub,2013-01-12 14:43:00,
2013-01-12 14:48:00,38.5,35.2,30.04,ENE,68,6.0,8.0,88,0.00,,,0.01,meteohub,2013-01-12 14:48:00,
2013-01-12 14:53:00,38.5,35.2,30.04,East,90,9.0,9.0,88,0.00,,,0.01,meteohub,2013-01-12 14:53:00,
2013-01-12 14:58:00,38.5,35.2,30.04,East,90,7.0,9.0,88,0.00,,,0.01,meteohub,2013-01-12 14:58:00,
2013-01-12 15:03:00,38.3,35.1,30.04,ENE,68,4.0,9.0,88,0.00,,,0.01,meteohub,2013-01-12 15:03:00,
2013-01-12 15:08:00,38.3,35.1,30.04,East,90,6.0,9.0,88,0.00,,,0.01,meteohub,2013-01-12 15:08:00,
2013-01-12 15:14:00,38.3,35.4,30.04,East,90,6.0,9.0,89,0.00,,,0.01,meteohub,2013-01-12 15:14:00,
2013-01-12 15:19:00,38.3,35.4,30.04,ENE,68,3.0,9.0,89,0.00,,,0.01,meteohub,2013-01-12 15:19:00,
2013-01-12 15:24:00,38.3,35.4,30.04,East,90,2.0,8.0,89,0.00,,,0.01,meteohub,2013-01-12 15:24:00,
2013-01-12 15:29:00,38.3,35.4,30.04,East,90,6.0,7.0,89,0.00,,,0.01,meteohub,2013-01-12 15:29:00,
2013-01-12 15:34:00,38.3,35.6,30.04,East,90,5.0,7.0,90,0.00,,,0.01,meteohub,2013-01-12 15:34:00,
2013-01-12 15:39:00,38.1,35.4,30.04,East,90,8.0,8.0,90,0.00,,,0.01,meteohub,2013-01-12 15:39:00,
2013-01-12 15:44:00,38.1,35.4,30.04,East,90,7.0,9.0,90,0.00,,,0.01,meteohub,2013-01-12 15:44:00,
2013-01-12 15:49:00,38.1,35.4,30.04,East,90,4.0,10.0,90,0.00,,,0.01,meteohub,2013-01-12 15:49:00,
2013-01-12 15:54:00,38.1,35.4,30.04,East,90,4.0,10.0,90,0.00,,,0.01,meteohub,2013-01-12 15:54:00,
2013-01-12 15:59:00,38.1,35.4,30.04,East,90,4.0,10.0,90,0.00,,,0.01,meteohub,2013-01-12 15:59:00,
2013-01-12 16:04:00,38.1,35.4,30.07,East,90,6.0,8.0,90,0.00,,,0.01,meteohub,2013-01-12 16:04:00,
2013-01-12 16:09:00,38.1,35.4,30.07,East,90,5.0,8.0,90,0.00,,,0.01,meteohub,2013-01-12 16:09:00,
2013-01-12 16:14:00,37.9,35.2,30.07,East,90,6.0,8.0,90,0.00,,,0.01,meteohub,2013-01-12 16:14:00,
2013-01-12 16:19:00,37.9,35.2,30.04,East,90,6.0,9.0,90,0.00,,,0.01,meteohub,2013-01-12 16:19:00,
2013-01-12 16:24:00,37.9,35.1,30.04,East,90,9.0,9.0,89,0.00,,,0.01,meteohub,2013-01-12 16:24:00,
2013-01-12 16:29:00,37.9,35.1,30.04,East,90,6.0,10.0,89,0.00,,,0.01,meteohub,2013-01-12 16:29:00,
2013-01-12 16:34:00,37.8,34.9,30.04,East,90,6.0,10.0,89,0.00,,,0.01,meteohub,2013-01-12 16:34:00,
2013-01-12 16:39:00,37.6,34.7,30.04,East,90,6.0,10.0,89,0.00,,,0.01,meteohub,2013-01-12 16:39:00,
2013-01-12 16:45:00,37.6,34.7,30.04,East,90,4.0,9.0,89,0.00,,,0.01,meteohub,2013-01-12 16:45:00,
2013-01-12 16:50:00,37.4,34.5,30.07,East,90,4.0,9.0,89,0.00,,,0.01,meteohub,2013-01-12 16:50:00,
2013-01-12 16:55:00,37.2,34.3,30.07,East,90,5.0,9.0,89,0.00,,,0.01,meteohub,2013-01-12 16:55:00,
2013-01-12 17:00:00,37.0,34.2,30.07,East,90,6.0,8.0,89,0.00,,,0.01,meteohub,2013-01-12 17:00:00,
2013-01-12 17:05:00,37.0,34.2,30.07,East,90,4.0,8.0,89,0.00,,,0.01,meteohub,2013-01-12 17:05:00,
2013-01-12 17:10:00,37.0,34.2,30.07,ENE,68,4.0,7.0,89,0.00,,,0.01,meteohub,2013-01-12 17:10:00,
2013-01-12 17:15:00,37.0,34.2,30.07,East,90,6.0,7.0,89,0.00,,,0.01,meteohub,2013-01-12 17:15:00,
2013-01-12 17:20:00,37.0,34.2,30.07,ENE,68,4.0,7.0,89,0.00,,,0.01,meteohub,2013-01-12 17:20:00,
2013-01-12 17:25:00,37.0,34.2,30.07,East,90,7.0,7.0,89,0.00,,,0.01,meteohub,2013-01-12 17:25:00,
2013-01-12 17:30:00,37.0,34.2,30.07,East,90,7.0,7.0,89,0.00,,,0.01,meteohub,2013-01-12 17:30:00,
2013-01-12 17:35:00,37.0,34.2,30.07,East,90,8.0,10.0,89,0.00,,,0.01,meteohub,2013-01-12 17:35:00,
2013-01-12 17:40:00,37.0,34.2,30.07,East,90,6.0,10.0,89,0.00,,,0.01,meteohub,2013-01-12 17:40:00,
2013-01-12 17:45:00,37.2,34.3,30.07,East,90,6.0,10.0,89,0.00,,,0.01,meteohub,2013-01-12 17:45:00,
2013-01-12 17:50:00,37.2,34.3,30.07,East,90,5.0,9.0,89,0.00,,,0.01,meteohub,2013-01-12 17:50:00,
2013-01-12 17:55:00,37.2,34.3,30.07,East,90,4.0,7.0,89,0.00,,,0.01,meteohub,2013-01-12 17:55:00,
2013-01-12 18:00:00,37.2,34.3,30.07,East,90,5.0,7.0,89,0.00,,,0.01,meteohub,2013-01-12 18:00:00,
2013-01-12 18:05:00,37.2,34.3,30.07,ENE,68,3.0,6.0,89,0.00,,,0.01,meteohub,2013-01-12 18:05:00,
2013-01-12 18:11:00,37.2,34.3,30.07,ENE,68,3.0,6.0,89,0.00,,,0.01,meteohub,2013-01-12 18:11:00,
2013-01-12 18:16:00,37.2,34.3,30.07,East,90,3.0,5.0,89,0.00,,,0.01,meteohub,2013-01-12 18:16:00,
2013-01-12 18:21:00,37.0,34.2,30.07,NE,45,2.0,4.0,89,0.00,,,0.01,meteohub,2013-01-12 18:21:00,
2013-01-12 18:26:00,37.0,34.2,30.07,NE,45,0.0,4.0,89,0.00,,,0.01,meteohub,2013-01-12 18:26:00,
2013-01-12 18:31:00,36.9,34.0,30.07,ENE,68,3.0,3.0,89,0.00,,,0.01,meteohub,2013-01-12 18:31:00,
2013-01-12 18:36:00,36.7,33.8,30.07,NE,45,3.0,4.0,89,0.00,,,0.01,meteohub,2013-01-12 18:36:00,
2013-01-12 18:41:00,36.5,33.6,30.07,NNE,22,1.0,4.0,89,0.00,,,0.01,meteohub,2013-01-12 18:41:00,
2013-01-12 18:46:00,36.3,33.1,30.07,NNE,22,2.0,4.0,88,0.00,,,0.01,meteohub,2013-01-12 18:46:00,
2013-01-12 18:51:00,36.1,32.9,30.07,North,0,0.0,3.0,88,0.00,,,0.01,meteohub,2013-01-12 18:51:00,
2013-01-12 18:56:00,35.8,32.5,30.07,North,0,0.0,3.0,88,0.00,,,0.01,meteohub,2013-01-12 18:56:00,
2013-01-12 19:01:00,35.6,32.4,30.07,North,0,0.0,2.0,88,0.00,,,0.01,meteohub,2013-01-12 19:01:00,
2013-01-12 19:06:00,35.2,32.0,30.07,North,0,4.0,0.0,88,0.00,,,0.01,meteohub,2013-01-12 19:06:00,
2013-01-12 19:11:00,34.9,31.6,30.07,North,0,5.0,5.0,88,0.00,,,0.01,meteohub,2013-01-12 19:11:00,
2013-01-12 19:16:00,34.5,31.3,30.07,NNE,22,4.0,5.0,88,0.00,,,0.01,meteohub,2013-01-12 19:16:00,
2013-01-12 19:21:00,34.3,31.1,30.07,NE,45,4.0,5.0,88,0.00,,,0.01,meteohub,2013-01-12 19:21:00,
2013-01-12 19:26:00,34.3,31.5,30.07,NE,45,3.0,5.0,89,0.00,,,0.01,meteohub,2013-01-12 19:26:00,
2013-01-12 19:31:00,34.3,31.5,30.07,NE,45,0.0,4.0,89,0.00,,,0.01,meteohub,2013-01-12 19:31:00,
2013-01-12 19:36:00,34.2,31.3,30.10,ENE,68,3.0,4.0,89,0.00,,,0.01,meteohub,2013-01-12 19:36:00,
2013-01-12 19:42:00,34.0,31.1,30.10,East,90,4.0,4.0,89,0.00,,,0.01,meteohub,2013-01-12 19:42:00,
2013-01-12 19:47:00,34.0,31.1,30.10,NE,45,3.0,5.0,89,0.00,,,0.01,meteohub,2013-01-12 19:47:00,
2013-01-12 19:52:00,34.0,31.1,30.10,NE,45,4.0,5.0,89,0.00,,,0.01,meteohub,2013-01-12 19:52:00,
2013-01-12 19:57:00,34.0,31.3,30.10,ENE,68,4.0,6.0,90,0.00,,,0.01,meteohub,2013-01-12 19:57:00,
2013-01-12 20:02:00,34.0,31.3,30.10,ENE,68,5.0,6.0,90,0.00,,,0.01,meteohub,2013-01-12 20:02:00,
2013-01-12 20:07:00,34.0,31.3,30.10,ENE,68,5.0,6.0,90,0.00,,,0.01,meteohub,2013-01-12 20:07:00,
2013-01-12 20:12:00,34.2,31.5,30.10,ENE,68,6.0,6.0,90,0.00,,,0.01,meteohub,2013-01-12 20:12:00,
2013-01-12 20:17:00,34.2,31.8,30.10,ENE,68,6.0,6.0,91,0.00,,,0.01,meteohub,2013-01-12 20:17:00,
2013-01-12 20:22:00,34.3,32.0,30.10,East,90,6.0,8.0,91,0.00,,,0.01,meteohub,2013-01-12 20:22:00,
2013-01-12 20:27:00,34.3,32.0,30.10,ENE,68,6.0,9.0,91,0.00,,,0.01,meteohub,2013-01-12 20:27:00,
2013-01-12 20:32:00,34.3,32.0,30.10,East,90,6.0,9.0,91,0.00,,,0.01,meteohub,2013-01-12 20:32:00,
2013-01-12 20:37:00,34.5,32.4,30.10,East,90,6.0,9.0,92,0.00,,,0.01,meteohub,2013-01-12 20:37:00,
2013-01-12 20:42:00,34.5,32.4,30.10,East,90,6.0,7.0,92,0.00,,,0.01,meteohub,2013-01-12 20:42:00,
2013-01-12 20:47:00,34.5,32.4,30.10,East,90,5.0,6.0,92,0.00,,,0.01,meteohub,2013-01-12 20:47:00,
2013-01-12 20:52:00,34.5,32.4,30.10,East,90,5.0,6.0,92,0.00,,,0.01,meteohub,2013-01-12 20:52:00,
2013-01-12 20:57:00,34.5,32.4,30.10,East,90,4.0,6.0,92,0.00,,,0.01,meteohub,2013-01-12 20:57:00,
2013-01-12 21:02:00,34.5,32.4,30.10,ENE,68,4.0,6.0,92,0.00,,,0.01,meteohub,2013-01-12 21:02:00,
2013-01-12 21:08:00,34.3,32.0,30.10,ENE,68,4.0,5.0,91,0.00,,,0.01,meteohub,2013-01-12 21:08:00,
2013-01-12 21:13:00,34.2,31.8,30.10,ENE,68,2.0,5.0,91,0.00,,,0.01,meteohub,2013-01-12 21:13:00,
2013-01-12 21:18:00,34.0,31.6,30.10,ENE,68,3.0,5.0,91,0.00,,,0.01,meteohub,2013-01-12 21:18:00,
2013-01-12 21:23:00,34.0,31.6,30.10,NNE,22,0.0,5.0,91,0.00,,,0.01,meteohub,2013-01-12 21:23:00,
2013-01-12 21:28:00,33.8,31.5,30.10,NE,45,0.0,3.0,91,0.00,,,0.01,meteohub,2013-01-12 21:28:00,
2013-01-12 21:33:00,33.6,31.3,30.10,NE,45,0.0,3.0,91,0.00,,,0.01,meteohub,2013-01-12 21:33:00,
2013-01-12 21:38:00,33.6,31.3,30.10,NE,45,0.0,0.0,91,0.00,,,0.01,meteohub,2013-01-12 21:38:00,
2013-01-12 21:43:00,33.4,31.1,30.10,ENE,68,2.0,0.0,91,0.00,,,0.01,meteohub,2013-01-12 21:43:00,
2013-01-12 21:48:00,33.3,30.9,30.10,East,90,0.0,3.0,91,0.00,,,0.01,meteohub,2013-01-12 21:48:00,
2013-01-12 21:53:00,33.1,30.7,30.10,East,90,2.0,3.0,91,0.00,,,0.01,meteohub,2013-01-12 21:53:00,
2013-01-12 21:58:00,33.1,30.7,30.10,East,90,5.0,5.0,91,0.00,,,0.01,meteohub,2013-01-12 21:58:00,
2013-01-12 22:03:00,32.9,30.6,30.10,East,90,4.0,5.0,91,0.00,,,0.01,meteohub,2013-01-12 22:03:00,
2013-01-12 22:08:00,32.7,30.4,30.10,ENE,68,3.0,5.0,91,0.00,,,0.01,meteohub,2013-01-12 22:08:00,
2013-01-12 22:13:00,32.7,30.4,30.10,ENE,68,0.0,5.0,91,0.00,,,0.01,meteohub,2013-01-12 22:13:00,
2013-01-12 22:18:00,32.5,30.2,30.10,North,0,0.0,4.0,91,0.00,,,0.01,meteohub,2013-01-12 22:18:00,
2013-01-12 22:23:00,32.5,30.2,30.10,North,0,0.0,4.0,91,0.00,,,0.01,meteohub,2013-01-12 22:23:00,
2013-01-12 22:29:00,32.4,30.4,30.10,NNE,22,2.0,2.0,92,0.00,,,0.01,meteohub,2013-01-12 22:29:00,
2013-01-12 22:34:00,32.2,29.8,30.10,North,0,4.0,4.0,91,0.00,,,0.01,meteohub,2013-01-12 22:34:00,
2013-01-12 22:39:00,32.2,30.2,30.10,North,0,5.0,5.0,92,0.00,,,0.01,meteohub,2013-01-12 22:39:00,
2013-01-12 22:44:00,32.4,30.4,30.10,NNE,22,4.0,6.0,92,0.00,,,0.01,meteohub,2013-01-12 22:44:00,
2013-01-12 22:49:00,32.4,30.6,30.10,NNE,22,4.0,6.0,93,0.00,,,0.01,meteohub,2013-01-12 22:49:00,
2013-01-12 22:54:00,32.4,30.6,30.10,NE,45,4.0,6.0,93,0.00,,,0.01,meteohub,2013-01-12 22:54:00,
2013-01-12 22:59:00,32.4,30.6,30.10,ENE,68,5.0,6.0,93,0.00,,,0.01,meteohub,2013-01-12 22:59:00,
2013-01-12 23:04:00,32.4,30.6,30.10,NE,45,3.0,5.0,93,0.00,,,0.01,meteohub,2013-01-12 23:04:00,
2013-01-12 23:09:00,32.5,31.1,30.10,ENE,68,4.0,5.0,94,0.00,,,0.01,meteohub,2013-01-12 23:09:00,
2013-01-12 23:14:00,32.5,31.1,30.10,East,90,4.0,5.0,94,0.00,,,0.01,meteohub,2013-01-12 23:14:00,
2013-01-12 23:19:00,32.7,31.1,30.10,East,90,6.0,6.0,94,0.00,,,0.01,meteohub,2013-01-12 23:19:00,
2013-01-12 23:24:00,33.1,31.5,30.10,East,90,5.0,7.0,94,0.00,,,0.01,meteohub,2013-01-12 23:24:00,
2013-01-12 23:30:00,33.3,32.0,30.10,East,90,4.0,7.0,95,0.00,,,0.01,meteohub,2013-01-12 23:30:00,
2013-01-12 23:35:00,33.3,32.0,30.10,East,90,6.0,7.0,95,0.00,,,0.01,meteohub,2013-01-12 23:35:00,
2013-01-12 23:40:00,33.4,32.2,30.10,East,90,6.0,8.0,95,0.00,,,0.01,meteohub,2013-01-12 23:40:00,
2013-01-12 23:45:00,33.4,32.2,30.10,East,90,7.0,8.0,95,0.00,,,0.01,meteohub,2013-01-12 23:45:00,
2013-01-12 23:50:00,33.6,32.4,30.10,East,90,4.0,8.0,95,0.00,,,0.01,meteohub,2013-01-12 23:50:00,
2013-01-12 23:55:00,33.6,32.4,30.10,East,90,5.0,8.0,95,0.00,,,0.01,meteohub,2013-01-12 23:55:00,